FW1987 Weather Reports


time (UTC)temp
F
wind
direction
speed
knots
gust
knots
rain 1hr
in
rain 24hr
in
rain mn
in
humidity
%
barometer
mb
20260505100106 61 298 0.0 0.0 0.02 0.02 0.02 81 1013.1
20260505094514 61 298 0.0 0.0 0.01 0.01 0.01 80 1013.0
20260505093028 61 298 0.0 0.0 0.01 0.01 0.01 77 1012.8
20260505091549 62 298 0.0 0.0 0.01 0.01 0.01 77 1012.8
20260505090106 62 298 0.0 0.0 0.00 0.00 0.00 77 1012.9
20260505084521 61 0.0 0.0 0.00 0.00 0.00 81 1012.9
20260505083035 61 0.0 0.0 0.00 0.00 0.00 81 1012.7
20260505081623 61 0.0 0.0 0.00 0.00 0.00 81 1012.8
20260505080017 61 0.0 0.0 0.00 0.00 0.00 81 1012.9
20260505074543 61 298 0.0 0.0 0.00 0.00 0.00 81 1012.9
20260505073105 61 298 0.0 0.0 0.00 0.00 0.00 81 1012.8
20260505071515 61 298 0.0 0.0 0.00 0.00 0.00 84 1012.7
20260505070052 61 298 0.0 0.0 0.00 0.00 0.00 87 1012.7
20260505064544 61 232 0.0 0.0 0.00 0.00 0.00 91 1012.4
20260505063010 61 211 0.0 0.0 0.00 0.00 0.00 92 1012.3
20260505061541 61 211 0.0 1.7 0.00 0.00 0.00 91 1012.2
20260505060055 61 189 0.0 0.0 0.00 0.00 0.00 92 1012.1
20260505054506 60 189 0.0 2.6 0.00 0.00 0.00 92 1011.9
20260505053034 61 201 0.0 0.0 0.00 0.00 0.00 92 1011.8
20260505051550 60 201 0.0 0.0 0.00 0.00 0.00 93 1011.8
20260505041508 59 195 0.0 0.0 0.00 0.00 0.00 93 1011.8
20260505040022 59 195 0.0 0.9 0.00 0.00 0.00 92 1011.8
20260505034540 59 195 0.0 0.0 0.00 0.00 0.00 92 1011.8
20260505033057 58 201 0.0 0.0 0.00 0.00 0.00 91 1011.7
20260505031535 58 201 0.0 0.0 0.00 0.00 0.00 90 1011.8
20260505030041 58 204 0.0 0.0 0.00 0.00 0.00 89 1011.8
20260505024552 58 268 0.0 0.0 0.00 0.00 0.00 88 1012.0
20260505023010 58 269 0.0 0.0 0.00 0.00 0.00 87 1012.1
20260505021516 59 269 0.0 0.0 0.00 0.00 0.00 87 1012.2
20260505020041 59 269 0.0 0.0 0.00 0.00 0.00 87 1012.5
20260505014608 59 268 0.0 0.0 0.00 0.00 0.00 86 1012.4
20260505013016 59 267 0.0 0.0 0.00 0.00 0.00 85 1012.5
20260505011551 59 267 0.0 0.0 0.00 0.00 0.00 83 1012.5
20260505010010 59 268 0.0 0.0 0.00 0.00 0.00 81 1012.7
20260505004520 60 268 0.0 0.0 0.00 0.00 0.00 79 1012.9
20260505003047 60 268 0.0 0.0 0.00 0.00 0.00 78 1013.2
20260505001510 60 268 0.0 0.0 0.00 0.00 0.00 76 1013.4
20260505000040 59 268 0.0 0.0 0.00 0.00 0.00 75 1013.4
20260504234545 59 268 0.0 0.0 0.00 0.00 0.00 75 1013.5
20260504233015 60 268 0.0 0.0 0.00 0.00 0.00 74 1013.8
20260504231533 60 268 0.0 0.0 0.00 0.00 0.00 73 1013.9
20260504230052 60 268 0.0 0.0 0.00 0.00 0.00 72 1013.9
20260504224511 61 268 0.0 0.0 0.00 0.00 0.00 71 1014.0
20260504223026 61 291 0.0 0.0 0.00 0.00 0.00 71 1014.1
20260504221558 62 291 0.0 0.0 0.00 0.00 0.00 70 1014.2
20260504220008 62 291 0.0 0.0 0.00 0.00 0.00 68 1014.2
20260504214527 63 291 0.0 0.0 0.00 0.00 0.00 67 1014.2
20260504213059 64 291 0.0 0.0 0.00 0.00 0.00 65 1014.3
20260504211506 65 291 0.0 0.0 0.00 0.00 0.00 63 1014.3
20260504210029 65 290 0.0 0.0 0.00 0.00 0.00 62 1014.2
20260504204550 66 284 0.0 1.7 0.00 0.00 0.00 62 1014.1
20260504203101 66 303 0.0 0.9 0.00 0.00 0.00 62 1014.1
20260504201525 66 286 0.0 0.0 0.00 0.00 0.00 62 1014.0
20260504200046 66 286 0.0 0.0 0.00 0.00 0.00 60 1014.0
20260504194601 67 286 0.0 0.0 0.00 0.00 0.00 59 1014.0
20260504193031 67 299 0.0 4.3 0.00 0.00 0.00 58 1013.9
20260504191602 68 277 0.0 6.1 0.00 0.00 0.00 56 1013.9
20260504190006 69 287 0.0 1.7 0.00 0.00 0.00 55 1013.8
20260504184523 70 280 0.0 0.9 0.00 0.00 0.00 53 1013.7
20260504183051 70 306 0.0 7.0 0.00 0.00 0.00 51 1013.5
20260504181550 71 265 0.0 7.8 0.00 0.00 0.00 48 1013.4
20260504180005 73 267 1.7 10.4 0.00 0.00 0.00 46 1013.3
20260504174524 76 307 0.9 6.1 0.00 0.00 0.00 37 1013.1
20260504173101 77 309 0.0 6.1 0.00 0.00 0.00 37 1013.1
20260504171515 77 300 0.0 5.2 0.00 0.00 0.00 38 1013.0